| time (UTC) | temp C | wind direction | speed KPH | gust KPH | rain 1hr cm | rain 24hr cm | rain mn cm | humidity % | barometer mb |
| 20260508204508 | 15 | 348 | 0.0 | 3.2 | 0.00 | 0.00 | 0.00 | 73 | 1014.3 |
| 20260508203005 | 16 | 347 | 0.0 | 4.8 | 0.00 | 0.00 | 0.00 | 72 | 1014.2 |
| 20260508201505 | 16 | 348 | 0.0 | 0.0 | 0.00 | 0.00 | 0.00 | 71 | 1014.4 |
| 20260508200005 | 16 | 347 | 0.0 | 3.2 | 0.00 | 0.00 | 0.00 | 70 | 1014.3 |
| 20260508194504 | 16 | 326 | 0.0 | 8.0 | 0.00 | 0.00 | 0.00 | 69 | 1014.0 |
| 20260508193006 | 17 | 352 | 0.0 | 1.6 | 0.00 | 0.00 | 0.00 | 68 | 1013.7 |
| 20260508191503 | 17 | 326 | 0.0 | 8.0 | 0.00 | 0.00 | 0.00 | 67 | 1013.5 |
| 20260508190002 | 17 | 331 | 0.0 | 9.7 | 0.00 | 0.00 | 0.00 | 66 | 1013.4 |
| 20260508184502 | 18 | 331 | 1.6 | 12.9 | 0.00 | 0.00 | 0.00 | 64 | 1013.2 |
| 20260508183001 | 18 | 340 | 1.6 | 9.7 | 0.00 | 0.00 | 0.00 | 63 | 1013.0 |
| 20260508181501 | 18 | 346 | 3.2 | 16.1 | 0.00 | 0.00 | 0.00 | 62 | 1012.8 |
| 20260508180000 | 19 | 303 | 8.0 | 17.7 | 0.00 | 0.00 | 0.00 | 61 | 1012.6 |
| 20260508174607 | 19 | 338 | 9.7 | 17.7 | 0.00 | 0.00 | 0.00 | 59 | 1012.3 |
| 20260508173058 | 20 | 18 | 4.8 | 16.1 | 0.00 | 0.00 | 0.00 | 58 | 1012.2 |
| 20260508171601 | 21 | 325 | 3.2 | 14.5 | 0.00 | 0.00 | 0.00 | 56 | 1012.2 |
| 20260508170059 | 21 | 40 | 6.4 | 17.7 | 0.00 | 0.00 | 0.00 | 55 | 1012.0 |
| 20260508164603 | 21 | 42 | 6.4 | 20.9 | 0.00 | 0.00 | 0.00 | 53 | 1011.9 |
| 20260508163116 | 22 | 357 | 6.4 | 14.5 | 0.00 | 0.00 | 0.00 | 52 | 1011.8 |
| 20260508161557 | 22 | 307 | 8.0 | 19.3 | 0.00 | 0.00 | 0.00 | 53 | 1011.9 |
| 20260508160055 | 21 | 338 | 4.8 | 12.9 | 0.00 | 0.00 | 0.00 | 52 | 1011.9 |
| 20260508154555 | 23 | 319 | 9.7 | 17.7 | 0.00 | 0.00 | 0.00 | 46 | 1011.9 |
| 20260508153056 | 23 | 335 | 4.8 | 16.1 | 0.00 | 0.00 | 0.00 | 46 | 1011.9 |
| 20260508151552 | 23 | 303 | 4.8 | 16.1 | 0.00 | 0.00 | 0.00 | 44 | 1012.1 |
| 20260508150050 | 24 | 2 | 3.2 | 12.9 | 0.00 | 0.00 | 0.00 | 45 | 1012.2 |
| 20260508144548 | 24 | 7 | 3.2 | 14.5 | 0.00 | 0.00 | 0.00 | 43 | 1012.4 |
| 20260508143049 | 23 | 2 | 3.2 | 12.9 | 0.00 | 0.00 | 0.00 | 44 | 1012.6 |
| 20260508141544 | 23 | 2 | 1.6 | 14.5 | 0.00 | 0.00 | 0.00 | 48 | 1012.6 |
| 20260508140040 | 23 | 332 | 1.6 | 9.7 | 0.00 | 0.00 | 0.00 | 48 | 1012.8 |
| 20260508134539 | 23 | 294 | 3.2 | 9.7 | 0.00 | 0.00 | 0.00 | 51 | 1013.0 |
| 20260508133039 | 23 | 330 | 1.6 | 16.1 | 0.00 | 0.00 | 0.00 | 52 | 1013.1 |
| 20260508131532 | 22 | 353 | 8.0 | 16.1 | 0.00 | 0.00 | 0.00 | 51 | 1013.2 |
| 20260508130029 | 23 | 357 | 4.8 | 14.5 | 0.00 | 0.00 | 0.00 | 52 | 1013.4 |
| 20260508124526 | 21 | 37 | 0.0 | 14.5 | 0.00 | 0.00 | 0.00 | 54 | 1013.6 |
| 20260508123032 | 21 | 277 | 0.0 | 14.5 | 0.00 | 0.00 | 0.00 | 56 | 1013.7 |
| 20260508121522 | 21 | 357 | 3.2 | 19.3 | 0.00 | 0.00 | 0.00 | 58 | 1013.9 |
| 20260508120019 | 21 | 300 | 1.6 | 12.9 | 0.00 | 0.00 | 0.00 | 58 | 1013.9 |
| 20260508114517 | 21 | 338 | 3.2 | 9.7 | 0.00 | 0.00 | 0.00 | 56 | 1014.0 |
| 20260508113015 | 21 | 357 | 3.2 | 12.9 | 0.00 | 0.00 | 0.00 | 58 | 1014.2 |
| 20260508111512 | 20 | 27 | 0.0 | 12.9 | 0.00 | 0.00 | 0.00 | 59 | 1014.3 |
| 20260508110009 | 19 | 2 | 0.0 | 12.9 | 0.00 | 0.00 | 0.00 | 61 | 1014.4 |
| 20260508104506 | 19 | 298 | 1.6 | 9.7 | 0.00 | 0.00 | 0.00 | 60 | 1014.5 |
| 20260508103006 | 19 | 344 | 3.2 | 8.0 | 0.00 | 0.00 | 0.00 | 61 | 1014.7 |
| 20260508101602 | 18 | 34 | 0.0 | 6.4 | 0.00 | 0.00 | 0.00 | 61 | 1014.7 |
| 20260508100058 | 17 | 342 | 1.6 | 8.0 | 0.00 | 0.00 | 0.00 | 64 | 1014.7 |
| 20260508094556 | 16 | 2 | 1.6 | 8.0 | 0.00 | 0.00 | 0.00 | 70 | 1014.9 |
| 20260508093058 | 15 | 292 | 1.6 | 6.4 | 0.00 | 0.00 | 0.00 | 71 | 1015.1 |
| 20260508091544 | 15 | 304 | 0.0 | 3.2 | 0.00 | 0.00 | 0.00 | 74 | 1015.2 |
| 20260508084537 | 13 | 299 | 0.0 | 0.0 | 0.00 | 0.00 | 0.00 | 79 | 1015.2 |
| 20260508083010 | 12 | 313 | 0.0 | 8.0 | 0.00 | 0.00 | 0.00 | 81 | 1015.2 |
| 20260508081507 | 12 | 303 | 3.2 | 11.3 | 0.00 | 0.00 | 0.00 | 84 | 1015.3 |
| 20260508080004 | 12 | 292 | 0.0 | 0.0 | 0.00 | 0.00 | 0.00 | 88 | 1015.2 |
| 20260508074600 | 11 | 331 | 0.0 | 0.0 | 0.00 | 0.00 | 0.00 | 91 | 1015.1 |
| 20260508073058 | 10 | 333 | 0.0 | 0.0 | 0.00 | 0.00 | 0.00 | 94 | 1015.1 |
| 20260508071552 | 9 | 329 | 0.0 | 0.0 | 0.00 | 0.00 | 0.00 | 95 | 1015.3 |
| 20260508070049 | 8 | 331 | 0.0 | 0.0 | 0.00 | 0.00 | 0.00 | 95 | 1015.3 |
| 20260508064548 | 8 | 335 | 0.0 | 0.0 | 0.00 | 0.03 | 0.00 | 96 | 1015.2 |
| 20260508063051 | 7 | 335 | 0.0 | 0.0 | 0.00 | 0.03 | 0.00 | 95 | 1015.2 |
| 20260508061544 | 7 | 335 | 0.0 | 3.2 | 0.00 | 0.03 | 0.00 | 95 | 1015.1 |
| 20260508060044 | 7 | 337 | 0.0 | 6.4 | 0.00 | 0.03 | 0.00 | 95 | 1014.9 |
| 20260508054559 | 7 | 2 | 1.6 | 4.8 | 0.00 | 0.08 | 0.00 | 94 | 1014.9 |
| 20260508053040 | 7 | 30 | 0.0 | 0.0 | 0.00 | 0.08 | 0.00 | 94 | 1015.0 |
| 20260508051535 | 6 | 32 | 0.0 | 0.0 | 0.00 | 0.08 | 0.00 | 93 | 1015.0 |
| 20260508050038 | 6 | 32 | 0.0 | 1.6 | 0.00 | 0.08 | 0.00 | 92 | 1014.9 |
| 20260508044532 | 6 | 53 | 0.0 | 0.0 | 0.00 | 0.15 | 0.00 | 92 | 1014.8 |
| 20260508043030 | 6 | 53 | 0.0 | 0.0 | 0.00 | 0.15 | 0.00 | 92 | 1014.6 |
| 20260508041533 | 7 | 53 | 0.0 | 0.0 | 0.00 | 0.15 | 0.00 | 92 | 1014.6 |
| 20260508040027 | 7 | 53 | 0.0 | 0.0 | 0.00 | 0.15 | 0.00 | 92 | 1014.5 |
| 20260508034526 | 7 | 53 | 0.0 | 0.0 | 0.00 | 0.28 | 0.00 | 91 | 1014.5 |
| 20260508033034 | 7 | 53 | 0.0 | 0.0 | 0.00 | 0.28 | 0.00 | 91 | 1014.5 |
| 20260508031524 | 7 | 53 | 0.0 | 0.0 | 0.00 | 0.28 | 0.00 | 91 | 1014.4 |
| 20260508030022 | 7 | 52 | 0.0 | 3.2 | 0.00 | 0.28 | 0.00 | 91 | 1014.4 |
| 20260508024521 | 7 | 49 | 0.0 | 0.0 | 0.00 | 0.43 | 0.00 | 91 | 1014.4 |
| 20260508023035 | 7 | 49 | 0.0 | 0.0 | 0.00 | 0.43 | 0.00 | 91 | 1014.4 |
| 20260508021521 | 7 | 49 | 0.0 | 0.0 | 0.00 | 0.43 | 0.00 | 91 | 1014.4 |
| 20260508020018 | 7 | 50 | 0.0 | 0.0 | 0.00 | 0.43 | 0.00 | 91 | 1014.3 |
| 20260508014517 | 7 | 50 | 0.0 | 0.0 | 0.00 | 0.51 | 0.00 | 90 | 1014.3 |
| 20260508013016 | 7 | 50 | 0.0 | 0.0 | 0.00 | 0.51 | 0.00 | 90 | 1014.2 |
| 20260508011516 | 7 | 49 | 0.0 | 0.0 | 0.00 | 0.51 | 0.00 | 90 | 1014.1 |
| 20260508010022 | 8 | 49 | 0.0 | 0.0 | 0.00 | 0.51 | 0.00 | 89 | 1014.2 |
| 20260508004520 | 8 | 49 | 0.0 | 0.0 | 0.00 | 0.56 | 0.00 | 89 | 1014.1 |
| 20260508003014 | 8 | 49 | 0.0 | 1.6 | 0.00 | 0.56 | 0.00 | 89 | 1014.1 |
| 20260508001508 | 8 | 49 | 0.0 | 3.2 | 0.00 | 0.56 | 0.00 | 89 | 1014.2 |
| 20260508000007 | 8 | 26 | 0.0 | 1.6 | 0.00 | 0.56 | 0.00 | 89 | 1014.2 |
| 20260507234504 | 8 | 25 | 0.0 | 3.2 | 0.00 | 0.61 | 0.00 | 88 | 1014.3 |
| 20260507233002 | 9 | 11 | 0.0 | 0.0 | 0.00 | 0.61 | 0.00 | 88 | 1014.6 |
| 20260507231601 | 9 | 12 | 0.0 | 0.0 | 0.00 | 0.61 | 0.00 | 88 | 1014.7 |
| 20260507230100 | 9 | 13 | 0.0 | 0.0 | 0.00 | 0.61 | 0.00 | 88 | 1014.6 |
| 20260507224604 | 9 | 12 | 0.0 | 1.6 | 0.00 | 0.69 | 0.00 | 87 | 1014.6 |
| 20260507223059 | 9 | 11 | 0.0 | 3.2 | 0.00 | 0.69 | 0.00 | 87 | 1014.7 |
| 20260507221552 | 10 | 13 | 0.0 | 4.8 | 0.00 | 0.69 | 0.00 | 87 | 1014.7 |
| 20260507220051 | 10 | 21 | 0.0 | 3.2 | 0.00 | 0.69 | 0.00 | 87 | 1014.9 |
| 20260507214549 | 10 | 63 | 0.0 | 11.3 | 0.00 | 0.71 | 0.69 | 87 | 1014.7 |
| 20260507213051 | 10 | 26 | 0.0 | 6.4 | 0.00 | 0.71 | 0.69 | 87 | 1014.6 |
| 20260507211551 | 10 | 53 | 0.0 | 6.4 | 0.00 | 0.71 | 0.69 | 86 | 1014.6 |
| 20260507210112 | 10 | 48 | 0.0 | 9.7 | 0.00 | 0.71 | 0.69 | 86 | 1014.6 |